Location: Treviso
(45.6669°N, 12.2430°E)
Time: 06:22:46
(UTC+01:00)

ISS - Pass Details

Date: 19 January 2021
Orbit: 418 x 421 km, 51.6° (Epoch: 23 January)

Event Time Altitude Azimuth Distance (km) Brightness Sun altitude
Rises 17:50:33 0° 192° (SSW) 2,355 0.5 -9.1°
Reaches altitude 10° 17:53:23 10° 166° (SSE) 1,497 -0.9 -9.5°
Maximum altitude 17:55:12 14° 133° (SE) 1,281 -1.6 -9.8°
Enters shadow 17:56:48 11° 104° (ESE) 1,451 -1.5 -10.1°
